Wind_Speed
7 6 7 12 6 7 6 7 8 8 9 2 3 10 7 12 18 16 18 18 19 12 13 17 19 16 12 13 14 14 13 13 13 12 11 10 10 10
8 7 5 11 11 8 8 10 10 11 8 16 17 15 12 14 16 18 17 20 19 8 10 17 18 14 9 12 14 15 16 16 15 14 13 12 11 10
8 5 6 7 8 12 14 11 9 11 13 12 16 16 18 9 12 12 16 18 12 11 12 16 16 15 15 18 17 17 17 18 18 16 14 13 12 11
8 7 7 8 4 7 9 8 8 12 10 10 13 14 15 7 7 10 13 13 14 9 15 16 12 16 20 17 15 15 17 18 16 15 14 13 14 12
7 8 7 7 7 8 8 11 12 10 9 13 15 13 15 17 8 13 13 10 16 17 18 7 9 22 19 18 13 10 13 15 16 16 14 13 13 13
9 9 8 9 8 8 9 8 10 11 13 14 17 19 16 14 11 16 18 15 16 18 18 15 17 21 18 19 12 9 12 16 17 16 13 12 13 13
10 8 12 10 8 8 9 9 9 11 13 16 16 18 16 18 16 15 19 19 21 20 20 18 21 18 19 18 8 5 13 19 18 13 10 12 13 13
10 9 8 4 6 6 10 12 12 10 12 13 15 17 17 16 18 18 19 20 19 17 22 22 18 15 15 15 2 8 18 20 12 6 9 12 14 13
9 7 9 3 0 6 10 12 11 12 12 13 14 16 17 14 14 17 19 20 22 23 23 24 28 22 20 16 9 16 14 12 12 12 17 19 18 17
5 3 1 2 6 5 5 7 7 8 9 8 10 13 15 18 18 18 20 22 22 21 20 16 17 19 18 22 23 11 6 16 15 13 16 17 18 20
5 6 5 3 5 6 6 6 8 6 8 11 14 11 10 10 8 8 12 16 15 17 17 19 19 24 23 19 18 7 22 18 16 17 19 20 17 16
6 7 5 5 6 7 7 8 8 11 14 12 9 10 9 9 10 6 14 13 17 15 15 22 20 16 14 14 22 22 23 19 20 18 17 18 19 18
4 5 5 5 7 8 8 9 10 13 14 16 11 8 9 11 14 15 15 12 15 17 18 21 19 18 17 20 18 21 24 26 25 23 22 21 15 15
4 2 2 4 6 7 10 12 8 11 12 11 10 9 11 12 13 14 14 15 15 14 19 14 17 19 19 20 20 20 21 22 23 25 21 22 21 19
2 5 6 6 6 7 7 9 11 9 9 15 14 12 12 13 13 14 15 18 16 14 15 17 15 19 19 22 24 25 25 23 16 17 19 19 21 24
2 4 3 4 4 5 5 8 10 10 10 10 11 12 13 13 13 16 18 18 19 17 17 17 20 23 23 23 24 26 25 23 25 22 20 21 22 23
3 2 5 7 7 8 9 11 10 10 11 12 12 13 14 15 16 16 17 18 17 20 22 23 24 24 25 26 26 25 23 23 24 25 28 28 28 28
3 4 5 5 5 6 7 7 8 11 11 12 12 13 14 15 17 17 17 17 18 19 21 23 27 28 25 22 16 21 26 24 26 31 33 30 32 30
4 5 5 5 4 5 6 7 8 9 10 11 12 13 14 14 16 16 18 18 20 21 23 24 24 23 20 13 28 24 30 35 32 30 28 28 29 31
5 5 5 5 5 5 6 7 8 10 11 12 12 14 15 17 18 18 19 20 20 21 22 21 22 23 24 25 32 42 29 28 26 29 32 35 36 39
5 5 5 4 5 5 6 7 8 9 10 11 13 14 16 17 18 19 20 21 23 22 24 24 25 29 29 30 27 28 30 33 36 36 36 37 39 40
4 4 4 4 4 5 6 7 8 9 10 11 11 13 14 16 18 21 22 24 24 24 26 28 29 29 28 28 30 33 34 35 38 39 33 32 34 28
3 3 3 3 4 5 6 7 8 9 10 11 13 14 15 17 18 18 20 21 24 25 27 30 30 29 29 30 32 33 36 37 32 35 42 39 40 42
Wind_Direction
245 251 273 289 260 287 282 291 307 313 318 276 2 12 1 334 338 332 327 319 311 306 323 336 331 326 327 337 338 334 330 315 302 293 286 284 282 294
245 243 274 287 313 264 277 292 296 290 293 305 317 345 3 337 320 333 321 314 309 285 337 336 337 333 321 329 326 322 320 317 311 304 296 285 281 284
274 283 268 275 281 297 323 313 287 291 296 318 332 317 325 305 318 323 323 305 334 332 320 327 330 330 316 322 318 312 310 310 312 303 300 300 283 280
250 256 264 265 277 281 288 278 295 304 299 300 286 305 309 303 307 306 311 325 328 297 323 309 312 331 326 324 324 320 318 311 313 310 293 301 295 280
244 248 254 264 264 289 303 304 307 325 308 292 322 294 304 297 290 304 292 295 317 345 330 327 335 317 311 307 309 322 343 332 319 320 299 291 295 285
248 253 251 251 262 269 277 287 282 298 292 275 273 284 295 2 356 345 319 324 343 323 325 332 325 321 316 302 285 290 327 335 321 316 299 288 294 279
255 254 254 253 257 265 273 282 288 283 295 317 317 315 329 344 338 316 316 329 318 327 327 324 325 319 321 319 223 282 327 332 323 318 308 301 296 280
264 245 261 257 282 265 266 262 257 265 278 287 293 300 314 321 311 314 312 317 312 315 330 310 298 310 318 327 326 327 331 325 320 334 346 330 315 298
251 272 271 29 291 290 292 300 288 279 268 273 283 290 305 309 309 308 309 308 302 305 298 303 308 328 337 320 316 317 310 333 324 286 312 310 304 300
150 166 143 13 302 308 327 313 312 301 290 287 287 300 301 295 298 296 298 297 300 304 315 328 316 317 322 321 327 325 328 332 320 304 305 312 306 300
110 120 101 60 33 15 9 355 343 339 325 317 306 317 328 335 332 308 323 339 320 327 325 349 337 332 325 314 325 304 323 317 317 295 302 307 300 304
118 91 59 55 41 33 27 360 356 339 329 323 316 312 309 315 330 308 341 351 346 328 349 350 331 324 320 316 330 318 322 331 315 305 312 314 285 285
136 116 39 39 20 16 13 349 338 330 327 310 318 338 355 356 358 360 351 344 334 323 329 339 325 331 329 320 318 320 331 329 328 331 338 328 327 294
62 47 15 8 2 357 7 342 331 336 321 322 321 350 356 343 337 339 337 338 324 312 323 345 339 342 335 323 321 324 326 322 318 323 326 324 324 321
359 324 332 344 5 320 1 15 358 4 349 1 2 356 345 333 329 341 342 338 332 329 332 344 336 329 322 320 319 321 320 315 314 314 320 319 321 313
292 351 351 23 32 26 9 26 24 19 12 7 351 347 348 345 345 347 340 339 331 333 338 341 341 343 329 319 319 310 308 311 316 317 316 315 313 316
99 85 48 51 43 33 35 34 27 23 16 4 1 354 351 349 346 347 339 337 338 335 333 333 331 332 321 311 306 308 317 327 333 336 340 327 315 307
126 101 76 68 60 48 41 33 32 23 16 14 8 2 355 351 351 345 343 341 336 336 335 337 334 330 328 319 318 350 336 327 325 324 320 310 302 302
145 101 84 71 49 44 38 33 20 19 11 11 4 0 356 352 349 349 347 342 340 336 330 329 328 329 324 314 313 317 322 315 314 310 306 299 301 305
102 97 91 74 48 42 37 27 17 14 10 6 3 358 355 351 346 343 339 338 333 326 319 326 326 330 326 311 307 306 307 297 305 317 313 310 302 299
95 90 76 66 54 40 34 27 21 15 9 5 3 357 352 349 341 339 334 332 331 327 324 322 323 321 313 307 297 297 303 301 297 296 302 304 302 303
90 86 67 56 47 35 26 20 14 12 8 3 359 353 349 344 339 336 333 329 327 324 319 318 319 319 318 314 308 308 307 308 306 299 293 285 288 293
97 83 72 50 41 27 16 10 7 6 1 357 353 347 341 336 332 328 325 323 320 318 318 317 317 316 312 310 308 308 308 307 310 312 303 297 291 285
Height
874 874 873 870 868 868 868 867 865 862 855 858 854 858 855 858 858 859 857 854 849 847 845 842 839 837 835 833 831 828 827 825 824 823 823 822 822 822
873 872 873 871 868 868 867 867 866 864 861 859 858 857 858 859 859 857 855 850 845 845 843 841 838 835 834 832 830 828 825 823 821 820 820 819 819 819
873 872 873 873 872 869 867 866 865 864 861 859 860 860 858 858 856 855 853 847 843 841 841 839 836 835 833 831 828 826 824 821 819 818 817 816 816 816
872 872 872 871 871 871 869 868 866 866 866 864 862 859 856 854 853 852 849 846 844 840 839 836 834 832 830 828 826 824 822 819 817 815 814 813 812 812
870 870 870 870 870 870 870 868 866 864 864 862 861 857 854 851 850 847 845 844 841 838 837 833 832 829 826 824 823 822 820 818 816 814 812 812 811 810
868 868 868 868 868 868 867 867 866 866 862 861 859 854 850 849 847 847 844 842 840 839 835 831 830 826 823 819 819 819 817 815 814 812 810 810 809 808
866 867 866 865 865 866 867 866 866 865 861 859 856 852 850 850 849 848 844 842 840 837 833 831 828 824 820 815 815 817 816 814 812 810 809 808 807 806
865 864 865 864 864 864 864 864 863 862 862 861 859 855 853 853 852 850 848 844 840 837 834 831 824 821 818 814 813 813 812 811 811 810 808 807 805 804
862 863 863 862 863 865 864 861 860 859 859 858 857 856 854 853 852 849 847 845 841 837 833 830 824 819 816 812 811 810 810 810 809 808 807 805 803 802
860 860 862 862 861 861 861 861 860 858 857 856 855 853 852 850 850 848 845 841 837 834 830 828 822 819 816 813 810 807 808 807 805 804 802 800 798 797
860 860 862 861 861 860 860 860 860 858 857 854 852 850 848 847 845 844 842 841 837 834 831 830 825 821 818 813 809 807 806 803 802 800 798 797 796 794
862 861 862 862 862 860 861 861 858 858 856 853 850 847 845 843 842 844 843 839 838 834 830 830 826 823 820 815 811 808 805 802 800 796 795 793 792 791
862 863 863 863 863 862 861 861 859 857 854 852 849 845 845 844 844 844 843 841 839 836 833 831 827 824 822 818 813 809 805 801 798 794 793 792 790 789
863 864 863 863 863 863 862 860 860 856 854 852 849 847 848 848 846 845 844 843 841 839 835 832 829 826 822 817 813 809 805 802 798 795 793 790 786 785
863 864 863 863 862 861 862 861 859 858 856 854 853 852 851 850 847 845 842 841 839 837 835 832 829 827 824 818 814 809 804 800 796 793 791 789 786 783
862 864 863 862 863 863 862 861 861 861 859 858 858 856 852 850 848 846 843 840 838 835 834 833 830 826 822 819 814 807 804 799 795 793 788 785 783 780
862 864 864 863 864 863 864 863 863 862 862 861 859 857 854 852 851 848 846 843 839 837 834 833 830 827 823 819 813 807 799 797 795 792 789 785 780 777
862 861 863 865 866 866 866 865 865 865 864 862 862 860 858 856 853 850 848 844 841 838 836 833 831 825 819 814 813 809 803 799 794 792 790 786 777 773
862 861 863 865 867 866 865 865 866 866 866 862 863 862 860 858 856 852 851 848 844 842 839 835 831 828 821 813 810 812 810 800 794 787 787 782 775 767
862 863 864 865 868 867 866 867 868 867 866 865 864 863 861 858 857 855 852 849 846 843 839 836 834 831 831 824 812 803 803 800 795 787 781 776 772 765
864 865 866 868 869 870 868 868 866 867 868 866 865 865 864 862 860 857 854 851 848 842 838 835 833 831 826 819 809 802 797 796 795 788 781 775 766 757
866 867 868 869 870 870 869 869 868 868 867 867 866 866 864 862 861 858 855 851 847 843 839 835 831 827 821 816 808 800 794 789 786 780 775 772 766 754
868 868 869 870 870 870 870 870 869 868 868 868 867 867 865 863 861 859 855 851 848 845 841 834 830 825 820 815 808 797 791 785 779 771 761 761 754 747